Flag for Canada Weather past 2 weeks in East Hants, Nova Scotia, Canada

Now
66 °F

Scattered clouds.


Feels Like: 66 °F
Forecast: 47 / 74 °F
Wind: 7 mph from Northwest

Location: Halifax International Airport

Current Time: Sep 5, 2015 at 12:26:33 PM

Latest Report: Sep 5, 2015 at 12:00 PM


Visibility: 15 mi

Pressure: 30.24 "Hg

Humidity: 56%

Dew point: 50 °F

Location of East HantsLocation

Historic Weather in East Hants — Graph

°F

East Hants temperature yesterday

Maximum temperature yesterday: 68 °F (at 3:00 PM)
Minimum temperature yesterday: 50 °F (at 6:00 AM)
Average temperature yesterday: 58 °F

Past Weeks' High & Low Weather Summary

 TemperatureHumidityPressure
High81 °F (Aug 25, 2:00 PM)100% (Aug 22, 10:00 AM)30.26 "Hg (Aug 22, 10:00 AM)
Low46 °F (Sep 5, 6:00 AM)42% (Aug 29, 4:00 PM)29.70 "Hg (Aug 31, 8:00 PM)
Average67 °F83%30.00 "Hg
* Reported Aug 21 11:00 AM — Sep 5 11:00 AM, East Hants, Weather by CustomWeather, © 2015

Note: Actual official high and low records may vary slightly from our data, if they occured in-between our weather recording intervals... More about our weather records

Advertising

East Hants weather history for previous 24 hours

 ConditionsComfort  
Time TempWeatherWind HumidityBarometerVisibility
11:00 AM
Sat, Sep 5
63 °FScattered clouds.8 mph68%30.25 "Hg15 mi
10:00 AM59 °FPassing clouds.6 mph72%30.25 "Hg15 mi
9:00 AM55 °FPassing clouds.6 mph82%30.25 "Hg15 mi
8:00 AM52 °FPassing clouds.3 mph88%30.25 "Hg15 mi
7:00 AM48 °FPassing clouds.3 mph87%30.25 "Hg15 mi
6:00 AM46 °FPassing clouds.No wind93%30.24 "Hg15 mi
5:00 AM48 °FFog.5 mph94%30.23 "Hg15 mi
4:00 AM50 °FClear.3 mph88%30.23 "Hg15 mi
3:00 AM48 °FClear.3 mph87%30.24 "Hg15 mi
2:00 AM48 °FClear.2 mph94%30.24 "Hg15 mi
1:00 AM48 °FClear.6 mph87%30.25 "Hg15 mi
12:00 AM50 °FClear.3 mph88%30.25 "Hg15 mi
11:00 PM
Fri, Sep 4
52 °FClear.5 mph82%30.26 "Hg15 mi
10:00 PM52 °FClear.7 mph82%30.26 "Hg15 mi
9:00 PM54 °FClear.6 mph82%30.24 "Hg15 mi
8:00 PM57 °FPassing clouds.7 mph72%30.21 "Hg15 mi
7:00 PM61 °FPassing clouds.13 mph63%30.19 "Hg15 mi
6:00 PM63 °FPassing clouds.12 mph64%30.18 "Hg15 mi
5:00 PM64 °FPassing clouds.14 mph60%30.16 "Hg15 mi
4:00 PM68 °FPassing clouds.10 mph53%30.16 "Hg15 mi
3:00 PM68 °FPassing clouds.14 mph49%30.15 "Hg15 mi
2:00 PM66 °FScattered clouds.13 mph52%30.16 "Hg15 mi
1:00 PM66 °FScattered clouds.14 mph56%30.16 "Hg15 mi
12:00 PM64 °FPassing clouds.16 mph60%30.15 "Hg15 mi
Weather by CustomWeather, © 2015

See weather overviewHow to use our weather pages